EW6613 Weather Reports


time (UTC)temp
C
wind
direction
speed
KPH
gust
KPH
rain 1hr
cm
rain 24hr
cm
rain mn
cm
humidity
%
barometer
mb
20260508023045 8 261 0.0 0.0 0.00 2.90 2.90 98 1002.5
20260508021545 8 189 0.0 0.0 0.00 2.90 2.90 98 1002.4
20260508020048 8 189 0.0 0.0 0.00 2.90 2.90 98 1002.4
20260508014546 8 189 0.0 0.0 0.00 2.90 2.90 98 1002.6
20260508013043 8 246 0.0 0.0 0.00 2.90 2.90 98 1002.6
20260508011556 8 274 0.0 0.0 0.00 2.90 2.90 98 1002.3
20260508010055 8 275 0.0 0.0 0.00 2.90 2.90 98 1002.5
20260508004554 8 270 0.0 0.0 0.00 2.90 2.90 97 1002.9
20260508003043 9 268 0.0 0.0 0.00 2.90 2.90 98 1002.8
20260508001542 9 198 0.0 0.0 0.00 2.90 2.90 98 1002.7
20260508000039 9 184 0.0 0.0 0.00 2.90 2.90 98 1002.5
20260507234538 9 189 0.0 0.0 0.00 2.90 2.90 98 1003.0
20260507233038 10 169 0.0 0.0 0.00 2.90 2.90 98 1002.7
20260507231540 10 170 0.0 0.0 0.00 2.90 2.90 98 1002.8
20260507230037 10 175 0.0 0.0 0.00 2.90 2.90 98 1003.2
20260507224537 10 208 0.0 0.0 0.00 2.90 2.90 98 1003.0
20260507223035 10 157 0.0 0.0 0.00 2.90 2.90 98 1003.4
20260507221537 10 225 0.0 0.0 0.00 2.90 2.90 98 1003.5
20260507220034 10 171 0.0 0.0 0.00 2.90 2.90 98 1003.5
20260507214534 10 200 0.0 0.0 0.03 2.90 2.90 98 1003.4
20260507213033 10 210 0.0 0.0 0.08 2.90 2.90 98 1003.3
20260507211532 10 251 0.0 0.0 0.20 2.90 2.90 97 1002.8
20260507210030 10 172 0.0 0.0 0.33 2.90 2.90 98 1002.5
20260507204528 10 165 0.0 0.0 0.51 2.84 2.84 98 1003.2
20260507203025 9 149 0.0 0.0 0.79 2.84 2.84 97 1004.1
20260507201524 9 210 0.0 0.0 1.17 2.72 2.72 97 1004.2
20260507200032 10 157 0.0 0.0 1.35 2.59 2.59 98 1004.6
20260507194521 8 170 0.0 0.0 1.37 2.36 2.36 97 1005.4
20260507193022 8 163 0.0 0.0 1.37 2.01 2.01 95 1005.9
20260507191516 11 207 0.0 0.0 1.09 1.52 1.52 96 1005.3
20260507190028 11 179 0.0 0.0 0.86 1.24 1.24 96 1005.0
20260507184512 11 160 0.0 0.0 0.61 0.97 0.97 96 1005.5
20260507183017 11 220 0.0 0.0 0.28 0.61 0.61 95 1005.9
20260507181511 12 161 0.0 0.0 0.05 0.41 0.41 95 1005.8
20260507180013 12 180 0.0 0.0 0.05 0.38 0.38 93 1005.4
20260507174510 12 140 0.0 0.0 0.03 0.36 0.36 92 1005.5
20260507173006 13 140 0.0 0.0 0.00 0.33 0.33 93 1006.0
20260507171504 13 173 0.0 0.0 0.00 0.33 0.33 93 1006.4
20260507170004 12 219 0.0 0.0 0.00 0.33 0.33 94 1006.6
20260507164502 12 189 0.0 0.0 0.03 0.33 0.33 94 1006.8
20260507163103 12 185 0.0 0.0 0.03 0.33 0.33 94 1007.1
20260507161557 12 148 0.0 0.0 0.03 0.33 0.33 95 1007.9
20260507160101 12 170 0.0 0.0 0.03 0.33 0.33 95 1008.3
20260507154554 12 189 0.0 0.0 0.00 0.33 0.33 95 1008.7
20260507153056 12 178 0.0 0.0 0.00 0.33 0.33 94 1009.1
20260507151550 12 174 0.0 0.0 0.00 0.33 0.33 94 1009.4
20260507150049 12 179 0.0 0.0 0.00 0.33 0.33 94 1009.9
20260507144550 12 177 0.0 0.0 0.00 0.33 0.33 94 1009.9
20260507143044 12 175 0.0 0.0 0.00 0.33 0.33 94 1010.2
20260507141544 12 220 0.0 0.0 0.00 0.33 0.33 95 1010.7
20260507140104 12 248 0.0 0.0 0.00 0.33 0.33 95 1011.0
20260507134542 12 256 0.0 0.0 0.00 0.33 0.33 95 1010.9
20260507133142 12 153 0.0 0.0 0.00 0.33 0.33 94 1011.1
20260507131543 12 169 0.0 0.0 0.00 0.33 0.33 94 1010.9
20260507130050 12 137 0.0 0.0 0.00 0.33 0.33 96 1011.2
20260507124540 12 175 0.0 0.0 0.00 0.33 0.33 96 1011.1
20260507123038 12 232 0.0 0.0 0.03 0.33 0.33 96 1010.8
20260507121538 12 184 0.0 0.0 0.05 0.33 0.33 97 1011.7
20260507120026 12 205 0.0 0.0 0.05 0.33 0.33 97 1012.2
20260507114523 12 187 0.0 0.0 0.05 0.33 0.33 97 1012.5
20260507113032 12 169 0.0 0.0 0.03 0.30 0.30 97 1012.8
20260507111524 11 172 0.0 0.0 0.00 0.28 0.28 97 1012.7
20260507110027 11 194 0.0 0.0 0.00 0.28 0.28 97 1012.7
20260507104521 11 178 0.0 0.0 0.03 0.28 0.28 96 1012.8
20260507103020 11 132 0.0 0.0 0.03 0.28 0.28 96 1013.0
20260507101527 11 149 0.0 0.0 0.05 0.28 0.28 97 1013.0
20260507100026 11 148 0.0 0.0 0.05 0.28 0.28 97 1013.1
20260507094521 11 204 0.0 0.0 0.05 0.25 0.25 97 1013.0
20260507093033 11 169 0.0 0.0 0.08 0.25 0.25 97 1013.0
20260507091516 11 253 0.0 0.0 0.15 0.23 0.23 97 1013.4
20260507090028 11 185 0.0 0.0 0.15 0.23 0.23 97 1013.3
20260507084513 11 179 0.0 0.0 0.15 0.20 0.20 97 1013.3
20260507083024 11 169 0.0 0.0 0.15 0.18 0.18 97 1013.4
20260507081512 11 186 0.0 0.0 0.10 0.10 0.10 97 1013.5
20260507074513 11 172 0.0 0.0 0.05 0.05 0.05 97 1014.1
20260507073005 11 163 0.0 0.0 0.03 0.03 0.03 97 1014.2
20260507071504 10 190 0.0 0.0 0.00 0.00 0.00 97 1014.6
20260507070003 10 160 0.0 0.0 0.00 0.00 0.00 97 1014.7
20260507064601 11 164 0.0 0.0 0.00 0.00 0.00 97 1014.8
20260507063101 11 212 0.0 0.0 0.00 0.00 0.00 97 1014.9
20260507061558 11 173 0.0 0.0 0.00 0.00 0.00 97 1015.1
20260507060100 11 200 0.0 0.0 0.00 0.00 0.00 97 1015.2
20260507054603 10 193 0.0 0.0 0.00 0.00 0.00 97 1015.6
20260507053052 10 196 0.0 0.0 0.00 0.00 0.00 98 1015.9
20260507051549 10 156 0.0 0.0 0.00 0.00 0.00 98 1016.4
20260507050045 10 234 0.0 0.0 0.00 0.00 0.00 98 1016.7
20260507044543 10 254 0.0 0.0 0.00 0.00 0.00 98 1017.1
20260507043041 10 223 0.0 0.0 0.00 0.00 0.00 97 1017.2
20260507041539 10 235 0.0 0.0 0.00 0.00 0.00 97 1017.7
20260507040045 10 295 0.0 0.0 0.00 0.00 0.00 97 1017.8
20260507034540 10 268 0.0 0.0 0.00 0.00 0.00 97 1018.1
20260507033037 10 206 0.0 0.0 0.00 0.00 0.00 97 1018.3
20260507031531 10 244 0.0 0.0 0.00 0.00 0.00 97 1018.5
20260507030032 10 200 0.0 0.0 0.00 0.00 0.00 97 1018.7
20260507024529 10 194 0.0 0.0 0.00 0.00 0.00 97 1018.9